Location: Riverton
(43.0250°N, 108.3790°W)
Time: 20:44:55
(UTC-06:00)

Daily predictions for brighter satellites

Satellite Brightness Start Highest point End
(mag) Time Altitude Azimuth Time Altitude Azimuth Time Altitude Azimuth
ATLAS CENTAUR R/B 2.9 20:30:03 10° WNW 20:32:17 32° SW 20:36:48 10° SSE
SL-16 R/B 3.0 20:31:58 10° SSE 20:36:47 29° ESE 20:41:37 10° NE
Nadezhda 4 Rocket 4.1 20:31:31 10° N 20:37:48 88° W 20:44:07 10° S
USA 186 1.7 20:35:39 10° SSE 20:38:16 47° ENE 20:41:05 10° N
Helios 1B rocket 3.1 20:36:46 10° NNE 20:40:30 32° E 20:44:12 10° SSE
Lacrosse 4 Rocket 2.4 20:36:56 10° NNW 20:40:54 34° NE 20:44:55 10° ESE
Cosmos 1707 Rocket 3.6 20:37:22 10° S 20:41:46 63° E 20:46:09 10° NNE
ATLAS 5 CENTAUR R/B 3.7 20:36:58 10° NNW 20:41:47 26° NE 20:46:57 10° E
ERBS 2.5 20:39:08 10° NW 20:42:34 61° NE 20:46:01 10° ESE
ERS-1 Rocket 4.3 20:42:38 10° ESE 20:46:31 23° ENE 20:50:25 10° NNE
SAR-Lupe-4 4.0 20:43:24 10° SE 20:46:49 43° ENE 20:50:15 10° N
Cosmos 1634 Rocket 4.1 20:41:08 10° S 20:47:16 58° E 20:53:28 10° NNE
Cosmos 1733 Rocket 4.2 20:43:36 10° NNE 20:47:25 27° ENE 20:51:13 10° SE
Milstar 3 4.1 20:40:35 10° WSW 20:47:28 27° S 20:52:58 10° SE
Cosmos 1092 Rocket 4.1 20:41:15 10° N 20:47:37 80° E 20:53:58 10° S
Intercosmos 25 Rocket 4.1 20:45:23 10° SSE 20:48:08 27° E 20:51:26 10° NNE
Cosmos 1939 Rocket 3.7 20:44:58 10° SE 20:48:37 33° ENE 20:52:13 10° N
ALOS 3.9 20:44:51 10° SSW 20:49:10 37° W 20:53:31 10° NNW
Cosmos 1486 Rocket 4.1 20:47:12 10° NNW 20:52:28 84° WSW 20:57:42 10° SSE
Cosmos 1655 Rocket 4.5 20:47:42 10° N 20:53:48 44° ENE 20:59:49 10° SSE
Cosmos 1408 3.0 20:54:51 10° N 20:58:25 44° ENE 21:01:56 10° SSE
Cosmos 1869 Rocket 4.1 20:54:21 10° NNW 20:58:48 65° W 21:03:13 10° S
Resurs 1-3 4.2 20:55:21 10° S 20:59:40 58° W 21:04:01 10° NNW
CENTAUR R/B 3.8 20:54:14 10° WSW 21:00:09 47° NW 21:06:54 10° NNE
SeaSat 1 4.1 20:57:13 10° E 21:00:44 20° NE 21:04:15 10° N
Abrixas rocket 2.6 21:00:58 10° WSW 21:04:15 66° NNW 21:07:30 10° ENE
SAR-Lupe-1 4.1 21:00:45 10° SSE 21:04:17 62° ENE 21:07:50 10° N
Cosmos 2227 4.5 20:58:40 10° NNW 21:04:24 74° WSW 21:10:05 10° SSE
Atlas Centaur 2 4.0 21:04:45 10° SSW 21:10:04 22° SSE 21:14:12 15° ESE
Cosmos 1455 3.6 21:08:57 10° SSW 21:12:34 42° WNW 21:16:11 10° N
Cosmos 2242 Rocket 3.6 21:09:11 10° S 21:13:40 67° E 21:18:08 10° NNE
Helios 1A 3.2 21:14:17 10° S 21:18:30 72° WSW 21:22:46 10° NNW
Molniya-1 4.4 21:20:20 10° WSW 21:22:01 34° NW 21:24:16 10° NNE
Cosmos 1503 Rocket 4.0 21:18:34 10° NNW 21:23:52 86° WSW 21:28:33 13° SSE
Cosmos 1869 3.9 21:22:13 10° SSW 21:26:05 57° W 21:30:00 10° N
Cosmos 1354 Rocket 4.1 21:22:35 10° NNW 21:27:53 79° WSW 21:32:34 13° SSE
Cosmos 2279 Rocket 3.9 21:22:13 10° S 21:28:24 72° E 21:34:38 10° NNE
CZ-4B DEB 3.1 21:26:45 13° S 21:29:19 59° W 21:32:20 10° NNW
Cosmos 1867 4.5 21:24:33 10° NNW 21:29:36 36° NE 21:32:45 20° ESE
Resurs 01 Rocket 3.9 21:27:32 10° SSW 21:31:09 24° W 21:34:47 10° NW
OAO 3 Rocket 4.1 21:28:09 10° WSW 21:32:31 32° S 21:34:27 24° SE
YAOGAN 6 2.6 21:31:23 25° SSE 21:33:22 62° ENE 21:36:57 10° N
BREEZE-M DEB (TANK) 4.1 21:29:30 10° SW 21:33:37 69° SSE 21:45:26 10° ENE
Meteor 1-29 3.3 21:31:04 10° N 21:34:32 66° WNW 21:37:57 10° SSW
SJ-11-01 4.4 21:30:00 10° S 21:34:39 73° WSW 21:39:20 10° NNW
H-2A R/B 3.5 21:33:27 17° E 21:35:12 21° ENE 21:38:49 10° NNE
Cosmos 1428 Rocket 4.4 21:38:02 10° N 21:44:10 89° E 21:49:26 14° S
Cosmos 968 Rocket 3.9 21:39:35 10° N 21:44:36 46° ENE 21:46:52 29° ESE
SPOT 5 3.4 21:43:24 28° ESE 21:45:20 40° ENE 21:49:42 10° N
Cosmos 2263 Rocket 2.1 21:41:15 10° NNW 21:46:51 85° ENE 21:50:09 26° SSE
Cosmos 2180 Rocket 4.5 21:44:21 10° S 21:50:45 87° E 21:57:08 10° N
Cosmos 1933 3.3 21:47:17 12° S 21:50:56 84° W 21:54:59 10° N
COSMOS 2428 4.0 21:52:07 21° E 21:52:07 21° E 21:55:36 10° NE
Envisat 3.9 21:46:41 10° S 21:51:33 46° W 21:56:26 10° NNW
Meteor 2-10 Rocket 3.8 21:46:40 14° S 21:51:33 62° E 21:57:17 10° NNE
Sich 1 Rocket 3.7 21:48:01 10° N 21:52:27 57° E 21:54:02 36° SE
Cosmos 2322 Rocket 2.5 21:47:11 10° SSW 21:52:45 67° WNW 21:58:22 10° NNE
Cosmos 1825 3.9 21:55:27 10° NNW 21:58:50 31° W 22:02:11 10° SSW
H-2A R/B 3.7 22:01:06 20° ENE 22:01:22 20° ENE 22:04:28 10° NNE
Cosmos 2360 Rocket 2.2 21:57:31 10° S 22:03:03 60° ESE 22:08:38 10° NNE
Cosmos 1908 Rocket 3.4 22:00:21 10° N 22:04:42 78° E 22:06:00 44° SSE
USA 245 4.2 22:08:13 35° SSE 22:10:43 70° ENE 22:15:50 10° N
Cosmos 2322 3.7 22:07:10 20° S 22:11:06 60° ESE 22:16:43 10° NNE
NOAA 11 4.1 22:09:51 32° SSE 22:12:33 88° WSW 22:18:05 10° NNW
USA 234 3.9 22:10:15 24° S 22:13:50 45° SW 22:20:05 10° WNW
Cosmos 1782 Rocket 3.5 22:14:25 10° N 22:18:45 64° E 22:19:11 60° ESE
Lacrosse 4 Rocket 3.3 22:15:54 10° NW 22:19:28 25° WSW 22:21:30 18° SSW
SL-16 R/B 3.4 22:15:20 10° SW 22:20:41 42° WNW 22:26:05 10° NNE
Okean 2 Rocket 3.3 22:17:48 10° N 22:22:13 50° ENE 22:22:22 50° E
SPOT 1/Viking Rocket 3.6 22:20:59 48° SE 22:22:17 65° ENE 22:27:28 10° N
ERS-1 Rocket 3.8 22:22:10 23° SSW 22:25:00 45° W 22:29:50 10° NNW
MetOp-B 4.3 22:23:31 35° S 22:25:48 69° WSW 22:31:10 10° NNW
ATLAS 5 CENTAUR R/B 2.4 22:21:05 10° NW 22:27:07 80° WSW 22:29:19 44° SSE
Cosmos 1782 4.2 22:29:11 28° NE 22:29:11 28° NE 22:31:31 10° NNE
Cosmos 2333 Rocket 4.0 22:34:09 17° ENE 22:34:09 17° ENE 22:36:03 10° NE
Landsat 7 4.0 22:33:21 52° E 22:33:34 53° ENE 22:38:12 10° N
ARGOS 3.2 22:34:29 44° S 22:36:10 73° WSW 22:41:33 10° NNW
SeaSat 1 2.5 22:36:49 55° S 22:37:47 70° WSW 22:42:44 10° NNW
Cosmos 2237 Rocket 4.3 22:41:32 12° ENE 22:41:32 12° ENE 22:42:21 10° ENE
Cosmos 2278 Rocket 3.6 22:36:15 10° N 22:40:53 25° NE 22:41:58 24° ENE
Abrixas rocket 3.9 22:38:26 10° WNW 22:41:20 30° N 22:41:20 30° N
Okean 1-7 3.0 22:44:46 81° WSW 22:44:51 81° W 22:49:18 10° N
Cosmos 1777 Rocket 3.8 22:41:09 10° NNW 22:46:28 80° ENE 22:46:56 72° SE
SL-08 RB Rocket 3.9 22:47:56 59° SW 22:48:23 63° WSW 22:52:57 10° NNW
Terra 2.2 22:48:57 51° ENE 22:48:57 51° ENE 22:53:19 10° N
Cosmos 1844 Rocket 2.7 22:44:40 10° NNW 22:50:14 62° ENE 22:50:44 59° E
Meteor 1-27 Rocket 4.5 22:55:22 37° ENE 22:55:22 37° ENE 22:59:44 10° NNE
Cosmos 2151 Rocket 4.2 22:51:19 10° N 22:54:48 46° NE 22:54:48 46° NE
NOSS 3-1 (C) 4.4 22:58:50 31° ENE 22:58:50 31° ENE 23:02:34 10° NE
Atlas Centaur 2 3.9 22:51:58 10° SW 22:56:51 30° SSW 22:56:51 30° SSW
Cosmos 2221 Rocket 4.2 22:58:59 47° WSW 22:59:29 50° WNW 23:03:49 10° N
USA 229 DEB 3.6 22:53:06 10° SW 22:59:56 84° NW 23:06:57 10° NE
USA 229 3.6 22:53:11 10° SW 23:00:01 85° NW 23:07:01 10° NE
SL-19 R/B 4.3 23:01:02 10° NNE 23:07:09 71° ESE 23:07:19 71° ESE
CARTOSAT-1 4.1 23:09:41 55° N 23:09:41 55° N 23:13:06 10° N
Cosmos 2219 Rocket 2.9 23:10:17 41° ENE 23:10:17 41° ENE 23:14:14 10° NNE
DMSP B5D2-2 4.0 23:06:52 10° NNE 23:12:07 88° NNW 23:12:07 88° NNW
Meteor 1-10 Rocket 4.2 23:12:04 72° SSW 23:12:42 86° W 23:18:37 10° N
Cosmos 1867 4.4 23:08:11 10° NW 23:13:12 38° WSW 23:13:26 38° WSW
H-2A R/B 2.4 23:14:05 50° WSW 23:14:17 51° W 23:19:08 10° NNW
CZ-4C R/B 3.5 23:08:27 10° NNW 23:15:10 47° NE 23:17:20 38° E
Meteor 1-11 Rocket 3.8 23:10:32 10° N 23:15:38 61° NE 23:15:38 61° NE
ASTEX 1 3.6 23:23:00 69° NW 23:23:00 69° NW 23:27:29 10° N
Cosmos 2263 Rocket 4.5 23:27:30 10° WNW 23:29:57 13° W 23:31:52 11° WSW
Geosat 4.2 23:25:48 10° NNE 23:30:39 66° NW 23:30:39 66° NW
Cosmos 1553 Rocket 3.8 23:32:37 86° S 23:32:46 90° ENE 23:39:03 10° N
COSMOS 2428 3.2 23:34:03 48° WSW 23:35:11 57° WNW 23:40:49 10° NNE
H-2A R/B 3.5 23:38:13 33° WNW 23:38:13 33° WNW 23:41:09 10° NNW
SL-08 R/B 4.4 23:31:25 10° N 23:37:35 80° W 23:37:36 80° W
Cosmos 1570 Rocket 4.5 23:42:36 58° N 23:42:36 58° N 23:46:53 10° NNE
CZ-4B R/B 4.2 23:37:42 10° NNE 23:41:03 46° N 23:41:03 46° N
NOSS 0 Rocket 4.2 23:44:20 55° NE 23:44:20 55° NE 23:49:13 10° NNE
Cosmos 2360 Rocket 4.3 23:43:00 10° WSW 23:47:28 23° NW 23:51:59 10° N
ATLAS 3B R/B 4.5 23:43:04 10° NNW 23:48:26 23° NNE 23:52:14 15° ENE
Cosmos 1844 4.3 23:47:23 10° NNW 23:52:07 50° WNW 23:52:07 50° WNW
Cosmos 1980 4.4 23:55:32 47° NE 23:55:32 47° NE 23:59:31 10° NNE
